This is the latest recevied weather packets stored in our database for station/object KF7U. If no packets are shown the sender has not sent any weather packets the latest 10 day(s).
| Time | Temp. | Humidity | Pressure | Rain* | Wind** | Luminosity | Snow |
|---|---|---|---|---|---|---|---|
| 1778022755 | 23.89° C | 28% | 1007.8 hPa | 0 mm | - | 664 W/m² | - |
| 1778022455 | 23.89° C | 28% | 1007.8 hPa | 0 mm | - | 169 W/m² | - |
| 1778022154 | 24.44° C | 27% | 1007.8 hPa | 0 mm | - | 236 W/m² | - |
| 1778021854 | 24.44° C | 28% | 1008.1 hPa | 0 mm | - | 756 W/m² | - |
| 1778021555 | 24.44° C | 28% | 1008.1 hPa | 0 mm | - | 252 W/m² | - |
| 1778021254 | 25° C | 28% | 1008.1 hPa | 0 mm | - | 247 W/m² | - |
| 1778020954 | 25° C | 27% | 1008.1 hPa | 0 mm | - | 795 W/m² | - |
| 1778020654 | 25.56° C | 28% | 1008.1 hPa | 0 mm | - | 806 W/m² | - |
| 1778020355 | 25° C | 29% | 1008.1 hPa | 0 mm | - | 806 W/m² | - |
| 1778020055 | 25° C | 30% | 1008.1 hPa | 0 mm | - | 836 W/m² | - |
| 1778019755 | 23.89° C | 32% | 1008.5 hPa | 0 mm | - | 888 W/m² | - |
| 1778019455 | 23.33° C | 32% | 1008.5 hPa | 0 mm | - | 498 W/m² | - |
| 1778019156 | 23.89° C | 32% | 1008.5 hPa | 0 mm | - | 218 W/m² | - |
| 1778018854 | 23.89° C | 32% | 1008.5 hPa | 0 mm | - | 942 W/m² | - |
| 1778018554 | 23.89° C | 32% | 1008.5 hPa | 0 mm | - | 335 W/m² | - |
| 1778018255 | 23.89° C | 34% | 1008.5 hPa | 0 mm | - | 358 W/m² | - |
| 1778017955 | 23.89° C | 32% | 1008.8 hPa | 0 mm | - | 300 W/m² | - |
| 1778017655 | 25° C | 31% | 1008.5 hPa | 0 mm | - | 334 W/m² | - |
| 1778017355 | 24.44° C | 33% | 1008.5 hPa | 0 mm | - | 987 W/m² | - |
| 1778017054 | 23.33° C | 37% | 1008.8 hPa | 0 mm | - | - | - |
| 1778016755 | 23.33° C | 35% | 1008.8 hPa | 0 mm | - | 297 W/m² | - |
| 1778016454 | 23.89° C | 35% | 1008.8 hPa | 0 mm | - | 261 W/m² | - |
| 1778016155 | 23.89° C | 35% | 1008.8 hPa | 0 mm | - | 998 W/m² | - |
| 1778015855 | 24.44° C | 35% | 1009.1 hPa | 0 mm | - | - | - |
| 1778015554 | 23.89° C | 37% | 1009.1 hPa | 0 mm | - | 360 W/m² | - |
* Rain latest hour (hover to see other rain measurements)
** Current wind speed in m/s (hover to see current wind gust speed)